TimeMST,TemperatureF,Dew PointF,Humidity,Sea Level PressureIn,VisibilityMPH,Wind Direction,Wind SpeedMPH,Gust SpeedMPH,PrecipitationIn,Events,Conditions,WindDirDegrees,DateUTC
12:15 AM,26.1,9.9,50,30.08,10.0,WNW,5.8,-,N/A,,Clear,300,2012-12-12 07:15:00
12:35 AM,15.3,7.5,71,30.08,10.0,SW,4.6,-,N/A,,Clear,220,2012-12-12 07:35:00
12:55 AM,17.8,8.4,67,30.08,10.0,Calm,Calm,-,N/A,,Clear,0,2012-12-12 07:55:00
1:15 AM,20.8,9.0,60,30.08,10.0,Calm,Calm,-,N/A,,Clear,0,2012-12-12 08:15:00
1:35 AM,20.7,8.6,60,30.09,10.0,Calm,Calm,-,N/A,,Clear,0,2012-12-12 08:35:00
1:55 AM,16.3,5.2,62,30.08,10.0,Calm,Calm,-,N/A,,Clear,0,2012-12-12 08:55:00
2:15 AM,10.2,5.2,80,30.09,10.0,NNE,4.6,-,N/A,,Clear,30,2012-12-12 09:15:00
2:35 AM,10.6,5.4,79,30.09,10.0,North,3.5,-,N/A,,Clear,10,2012-12-12 09:35:00
2:55 AM,10.2,5.7,82,30.09,10.0,North,3.5,-,N/A,,Clear,360,2012-12-12 09:55:00
3:15 AM,10.2,5.2,80,30.09,10.0,Calm,Calm,-,N/A,,Clear,0,2012-12-12 10:15:00
3:35 AM,8.8,4.1,81,30.09,10.0,North,4.6,-,N/A,,Clear,360,2012-12-12 10:35:00
3:55 AM,9.7,5.2,82,30.09,10.0,NNW,3.5,-,N/A,,Clear,330,2012-12-12 10:55:00
4:15 AM,7.3,3.2,83,30.08,10.0,North,3.5,-,N/A,,Clear,10,2012-12-12 11:15:00
4:35 AM,9.9,4.8,80,30.09,10.0,North,3.5,-,N/A,,Clear,10,2012-12-12 11:35:00
4:55 AM,8.6,4.3,83,30.09,10.0,NNE,3.5,-,N/A,,Clear,30,2012-12-12 11:55:00
5:15 AM,7.7,3.2,82,30.09,10.0,North,5.8,-,N/A,,Clear,360,2012-12-12 12:15:00
5:35 AM,7.5,3.4,83,30.10,10.0,North,5.8,-,N/A,,Clear,350,2012-12-12 12:35:00
6:15 AM,9.5,4.6,81,30.09,10.0,NNW,9.2,-,N/A,,Clear,330,2012-12-12 13:15:00
6:35 AM,10.0,4.8,79,30.09,10.0,NNW,6.9,-,N/A,,Clear,330,2012-12-12 13:35:00
6:55 AM,9.3,4.5,81,30.10,10.0,NNE,4.6,-,N/A,,Clear,20,2012-12-12 13:55:00
7:15 AM,9.3,4.1,79,30.11,10.0,NE,5.8,-,N/A,,Clear,50,2012-12-12 14:15:00
7:35 AM,9.9,4.6,79,30.11,10.0,NE,4.6,-,N/A,,Clear,40,2012-12-12 14:35:00
7:55 AM,12.9,7.2,78,30.12,10.0,Calm,Calm,-,N/A,,Clear,0,2012-12-12 14:55:00
8:15 AM,16.0,9.3,75,30.12,10.0,NE,3.5,-,N/A,,Clear,40,2012-12-12 15:15:00
8:35 AM,19.9,12.4,72,30.12,10.0,Calm,Calm,-,N/A,,Clear,0,2012-12-12 15:35:00
8:55 AM,22.5,11.8,64,30.13,10.0,Calm,Calm,-,N/A,,Clear,0,2012-12-12 15:55:00
9:15 AM,25.3,13.1,60,30.13,10.0,NNE,4.6,-,N/A,,Clear,20,2012-12-12 16:15:00
9:35 AM,28.4,13.5,54,30.13,10.0,North,4.6,-,N/A,,Clear,10,2012-12-12 16:35:00
10:15 AM,33.4,16.3,50,30.12,10.0,North,8.1,-,N/A,,Clear,10,2012-12-12 17:15:00
10:35 AM,35.2,17.4,48,30.12,10.0,North,8.1,-,N/A,,Clear,10,2012-12-12 17:35:00
10:55 AM,35.8,18.3,49,30.12,10.0,NNE,6.9,-,N/A,,Clear,20,2012-12-12 17:55:00
11:15 AM,37.9,18.5,46,30.12,10.0,NNE,6.9,-,N/A,,Clear,20,2012-12-12 18:15:00
11:35 AM,39.6,18.5,43,30.11,10.0,ENE,4.6,-,N/A,,Clear,60,2012-12-12 18:35:00
11:55 AM,41.4,18.9,41,30.10,10.0,East,5.8,-,N/A,,Clear,90,2012-12-12 18:55:00
12:15 PM,41.9,18.5,39,30.09,10.0,NNE,4.6,-,N/A,,Clear,30,2012-12-12 19:15:00
12:55 PM,44.6,21.2,39,30.08,10.0,NE,6.9,-,N/A,,Clear,50,2012-12-12 19:55:00
1:15 PM,45.7,17.2,32,30.07,10.0,Calm,Calm,-,N/A,,Clear,0,2012-12-12 20:15:00
1:35 PM,46.2,18.0,32,30.06,10.0,NE,3.5,-,N/A,,Clear,40,2012-12-12 20:35:00
1:55 PM,46.6,17.8,32,30.06,10.0,Calm,Calm,-,N/A,,Clear,0,2012-12-12 20:55:00
2:15 PM,47.1,18.3,32,30.06,10.0,ENE,3.5,-,N/A,,Clear,70,2012-12-12 21:15:00
2:35 PM,47.5,19.2,33,30.05,10.0,NE,6.9,-,N/A,,Clear,40,2012-12-12 21:35:00
2:55 PM,48.2,18.5,31,30.05,10.0,NNE,5.8,-,N/A,,Clear,20,2012-12-12 21:55:00
3:15 PM,48.2,19.9,33,30.06,10.0,North,6.9,-,N/A,,Clear,10,2012-12-12 22:15:00
3:35 PM,47.7,19.6,33,30.06,10.0,Calm,Calm,-,N/A,,Clear,0,2012-12-12 22:35:00
3:55 PM,47.5,18.3,31,30.06,10.0,NNE,5.8,-,N/A,,Clear,20,2012-12-12 22:55:00
4:15 PM,46.9,17.6,31,30.06,10.0,West,3.5,-,N/A,,Clear,260,2012-12-12 23:15:00
4:35 PM,45.0,17.1,33,30.07,10.0,Calm,Calm,-,N/A,,Clear,0,2012-12-12 23:35:00
4:55 PM,42.8,15.8,34,30.07,10.0,NNE,3.5,-,N/A,,Clear,20,2012-12-12 23:55:00
5:15 PM,39.0,16.3,40,30.07,10.0,North,6.9,-,N/A,,Clear,350,2012-12-13 00:15:00
5:35 PM,36.0,20.1,53,30.08,10.0,North,4.6,-,N/A,,Clear,10,2012-12-13 00:35:00
5:55 PM,33.4,22.6,65,30.08,10.0,NE,6.9,-,N/A,,Clear,40,2012-12-13 00:55:00
6:15 PM,35.2,19.2,52,30.09,10.0,Calm,Calm,-,N/A,,Clear,0,2012-12-13 01:15:00
6:35 PM,37.2,15.8,42,30.10,10.0,NE,3.5,-,N/A,,Clear,40,2012-12-13 01:35:00
6:55 PM,30.7,20.7,66,30.10,10.0,North,4.6,-,N/A,,Clear,360,2012-12-13 01:55:00
7:15 PM,29.1,20.5,70,30.11,10.0,NNW,4.6,-,N/A,,Clear,330,2012-12-13 02:15:00
7:35 PM,28.2,20.3,72,30.11,10.0,NW,5.8,-,N/A,,Clear,320,2012-12-13 02:35:00
7:55 PM,25.7,19.8,78,30.12,10.0,Calm,Calm,-,N/A,,Clear,0,2012-12-13 02:55:00
8:15 PM,24.8,19.6,81,30.13,10.0,ENE,5.8,-,N/A,,Clear,60,2012-12-13 03:15:00
8:35 PM,27.1,19.4,73,30.13,10.0,Calm,Calm,-,N/A,,Clear,0,2012-12-13 03:35:00
8:55 PM,23.9,18.9,81,30.13,10.0,NNE,4.6,-,N/A,,Clear,20,2012-12-13 03:55:00
9:15 PM,22.3,18.1,84,30.13,10.0,North,4.6,-,N/A,,Clear,10,2012-12-13 04:15:00
9:35 PM,21.2,17.4,85,30.14,10.0,NNW,5.8,-,N/A,,Clear,340,2012-12-13 04:35:00
9:55 PM,19.4,14.5,81,30.14,10.0,NNW,6.9,-,N/A,,Clear,330,2012-12-13 04:55:00
10:15 PM,19.4,15.6,85,30.14,10.0,NNW,4.6,-,N/A,,Clear,340,2012-12-13 05:15:00
10:35 PM,18.9,14.4,83,30.14,10.0,Calm,Calm,-,N/A,,Clear,0,2012-12-13 05:35:00
10:55 PM,20.3,11.5,69,30.14,10.0,NW,3.5,-,N/A,,Clear,320,2012-12-13 05:55:00
11:15 PM,16.9,11.7,80,30.14,10.0,NE,3.5,-,N/A,,Clear,50,2012-12-13 06:15:00
11:35 PM,16.5,13.1,86,30.13,10.0,North,5.8,-,N/A,,Clear,10,2012-12-13 06:35:00
11:55 PM,15.4,11.7,85,30.13,10.0,ENE,3.5,-,N/A,,Clear,60,2012-12-13 06:55:00